星链-32181 (STARLINK-32181)

导读 | 豆包AI

STARLINK-32181是美国SpaceX公司星链星座的卫星,于2024年8月2日发射。星链项目旨在低轨部署海量卫星,提供全球高速互联网接入,尤其填补偏远地区覆盖空白。作为Starlink组网卫星之一,它运行在近地轨道,配备专用天线与太阳能供电模块,通过星间链路和地面站协同工作,支撑星座的全球通信服务能力,推进SpaceX万颗低轨卫星互联网建设进程。

基本信息
目录编号:
60349
目录名称:
STARLINK-32181
国际标识:
2024-136W
轨道中心:
EARTH
卫星名称:
星链-32181 (STARLINK-32181)
卫星全名:
星链-32181 (STARLINK-32181)
卫星状态:
在轨 (已飞行590 天)
发射日期:
2024-08-02 UTC
国别 :
美国 (US)
星等 :
--
轨道信息
数据来源 国际轨道数据 AOE轨道数据
星历时间 2026-03-15T12:56:01+0800
9小时前
查看轨道信息
2026-03-14T11:00:00+0800
1天前
查看轨道信息
半长轴 6853.413km 6853.356km
偏心率 0.0001409 0.0001206
轨道倾角 53.163° 53.160°
近地点辐角 113.874° 81.862°
升交点赤经 49.714° 54.737°
平近点角 246.241° 82.493°
近地点 474.31km 474.392km
远地点 476.242km 476.046km
周期 94.107分钟 94.105分钟
每日圈数 15.301799 15.301987
详细信息
卫星平台:
Starlink v2.0 mini
运营商:
太空探索技术公司
运营商所在国:
美国
制造商(研发单位):
太空探索技术公司
制造商所在国:
美国
使用方式:
暂无
卫星简介
星链(Starlink)计划是由太空探索技术公司(SpaceX)提出的一个巨型低轨卫星互联网星座项目,计划在2019年至2024年间在太空搭建由约1.2万颗卫星组成的“星链”网络,其中1584颗将部署在地球上空550千米处的近地轨道,并从2020年开始工作。该卫星仍在工作。
2D轨道图
3D轨道图
轨道高度分析图
轨道倾角分析图
轨道综合分析图
查看轨道综合分析图